www.pogodaiklimat.ru

Погода и климат >> Архив погоды >> Австралия >> Thargomindah Airport


ПОГОДА в Thargomindah Airport

  • Прогноз погоды в Thargomindah Airport
  • Монитор погоды в Thargomindah Airport
  • Климат города

АРХИВ ПОГОДЫ в Thargomindah Airport

Время (UTC), дата Ветер
(напр.,м/с)
 
Видим.   Явления Облачность Т
(С)
Тd
(С)
f
(%)
Тe
(С)
Тes
(С)
Комфортность P
(гПа)
Po
(гПа)
Тmin
(С)
Tmax
(С)
R
(мм)
R24
(мм)
S
(см)
23 17.05 ЮВ 5 н/о н/о +13.3 +0.7 42 +12 +12 1026.0 1010.3
00 18.05 ЮВ 6 н/о н/о +14.6 +0.5 38 +13 +13 1026.4 1010.5
02 18.05 ЮВ 4 н/о н/о +17.5 +0.2 31 +17 +17 1025.0 1009.4 +8.3
03 18.05 Ю 5 н/о н/о +18.9 0.0 28 +19 +19 1024.5 1008.6
05 18.05 Ю 3 н/о н/о +20.3 -0.3 25 +21 +21 комфорт 1023.1 1007.5
06 18.05 ЮЗ 5 н/о н/о +20.4 -2.0 22 +20 +20 1023.0 1007.2
08 18.05 Ю 4 н/о н/о +18.6 -1.8 25 +19 +19 1023.0 1007.4
09 18.05 Ю 3 н/о н/о +16.9 -1.7 28 +17 +17 1023.6 1007.8
11 18.05 Ю 4 н/о н/о +15.4 -1.2 32 +15 +15 1023.8 1008.2
12 18.05 ЮВ 4 н/о н/о +14.1 -1.1 35 +13 +13 1024.2 1008.3
14 18.05 ЮВ 3 н/о н/о +12.3 +0.1 43 +11 +11 1023.9 1008.3 +20.9
15 18.05 Ю 3 н/о н/о +10.9 +0.3 48 +9 +9 1024.0 1008.1
17 18.05 ЮВ 2 н/о н/о +9.2 +1.4 58 +8 +8 1023.4 1007.8
18 18.05 Ю 2 н/о н/о +8.6 +1.7 62 +7 +7 1023.6 1007.8
20 18.05 ЮВ 3 н/о н/о +9.9 +4.5 69 +8 +8 1023.6 1008.0
21 18.05 ЮВ 3 н/о н/о +9.4 +4.4 71 +8 +8 1024.7 1008.8
23 18.05 В 3 н/о н/о +14.0 +4.6 53 +13 +13 1025.5 1009.8
00 19.05 В 4 н/о н/о +16.0 +3.1 42 +15 +15 1025.9 1010.0
02 19.05 В 5 н/о н/о +19.1 +1.6 31 +19 +19 1024.2 1008.6 +7.6
03 19.05 ЮВ 4 н/о н/о +20.2 +0.1 26 +20 +20 1023.4 1007.6
05 19.05 ЮВ 4 н/о н/о +21.5 +2.7 29 +21 +21 комфорт 1022.1 1006.5
06 19.05 ЮВ 5 н/о н/о +21.4 +3.6 31 +22 +22 комфорт 1022.1 1006.3
08 19.05 Ю 3 н/о н/о +19.7 +3.8 35 +20 +20 1022.5 1006.9
09 19.05 ЮВ 3 н/о н/о +18.3 +4.1 39 +19 +19 1023.3 1007.5
11 19.05 Ю 3 н/о н/о +16.4 +3.8 43 +16 +16 1024.2 1008.6
12 19.05 ЮВ 3 н/о н/о +15.5 +3.6 45 +15 +15 1024.8 1008.9
14 19.05 ЮВ 3 н/о н/о +14.0 +3.2 48 +13 +13 1024.4 1008.8 +22.0
15 19.05 ЮВ 3 н/о н/о +13.3 +3.1 50 +12 +12 1024.3 1008.4
17 19.05 ЮВ 2 н/о н/о +10.6 +2.2 56 +10 +10 1024.0 1008.4
18 19.05 штиль 0 н/о н/о +8.9 +1.3 59 +9 +9 1024.3 1008.4
20 19.05 Ю 2 н/о н/о +8.0 +1.6 64 +6 +6 1024.6 1009.0
21 19.05 Ю 2 н/о н/о +8.0 +1.2 62 +6 +6 1025.7 1009.8
23 19.05 ЮВ 4 н/о н/о +15.4 +2.9 43 +15 +15 1026.9 1011.2
00 20.05 ЮВ 5 н/о н/о +18.1 +1.2 32 +18 +18 1027.0 1011.1
02 20.05 ЮВ 5 н/о н/о +19.2 -0.2 27 +19 +19 1025.6 1009.9 +7.7
03 20.05 ЮВ 4 н/о н/о +19.8 +0.3 27 +20 +20 1024.8 1008.9
05 20.05 Ю 5 н/о н/о +20.5 -0.2 25 +20 +20 1023.3 1007.7
06 20.05 ЮВ 4 н/о н/о +20.7 -0.6 24 +21 +21 комфорт 1023.5 1007.7
08 20.05 ЮВ 3 н/о н/о +18.5 -1.3 26 +19 +19 1024.0 1008.4
09 20.05 Ю 2 н/о н/о +15.4 -2.1 30 +15 +15 1024.9 1009.0
11 20.05 Ю 3 н/о н/о +13.3 -1.4 36 +13 +13 1026.0 1010.3
12 20.05 Ю 3 н/о н/о +13.3 -0.7 38 +12 +12 1026.6 1010.7
14 20.05 Ю 3 н/о н/о +12.5 +1.2 46 +11 +11 1026.6 1010.9 +21.2
15 20.05 Ю 4 н/о н/о +12.1 +1.7 49 +11 +11 1026.4 1010.5
17 20.05 ЮВ 4 н/о н/о +11.9 +2.1 51 +10 +10 1025.4 1009.7
18 20.05 ЮВ 4 н/о н/о +11.8 +2.5 53 +10 +10 1025.5 1009.6
20 20.05 ЮВ 3 н/о н/о +10.1 +2.5 59 +8 +8 1026.3 1010.6
21 20.05 В 2 н/о н/о +8.9 +2.0 62 +7 +7 1027.1 1011.2
23 20.05 В 3 н/о н/о +13.3 +2.8 49 +13 +13 1027.6 1011.9
00 21.05 В 4 н/о н/о +16.4 +3.5 42 +16 +16 1028.3 1012.4
02 21.05 Ю 3 н/о н/о +19.4 +1.9 31 +20 +20 1027.1 1011.4 +8.4
03 21.05 Ю 5 н/о н/о +20.8 +1.6 28 +21 +21 комфорт 1026.4 1010.5
05 21.05 Ю 5 н/о н/о +22.5 +3.1 28 +22 +22 комфорт 1024.8 1009.2
06 21.05 ЮВ 5 н/о н/о +22.4 +3.0 28 +22 +22 комфорт 1025.3 1009.4
08 21.05 Ю 4 н/о н/о +20.5 +3.3 32 +21 +21 комфорт 1025.9 1010.2
09 21.05 Ю 4 н/о н/о +18.9 +3.1 35 +19 +19 1026.6 1010.7
11 21.05 Ю 3 н/о н/о +16.1 +3.5 43 +16 +16 1027.0 1011.3
12 21.05 Ю 3 н/о н/о +15.2 +3.4 45 +15 +15 1027.5 1011.6
14 21.05 Ю 3 н/о н/о +13.5 +4.1 53 +13 +13 1027.2 1011.5 +23.0
15 21.05 Ю 2 н/о н/о +12.5 +4.0 56 +12 +12 1027.3 1011.4
17 21.05 Ю 3 н/о н/о +11.0 +4.2 63 +10 +10 1027.1 1011.4
18 21.05 Ю 1 н/о н/о +8.8 +2.6 65 +9 +9 1027.1 1011.2
20 21.05 ЮЗ 3 н/о н/о +8.8 +3.8 71 +7 +7 1027.3 1011.6
21 21.05 ЮЗ 2 н/о н/о +8.7 +3.9 72 +8 +8 1028.0 1012.1
23 21.05 Ю 3 н/о н/о +14.2 +5.8 57 +14 +14 1028.7 1013.0
00 22.05 Ю 7 н/о н/о +16.9 +5.5 47 +16 +16 1028.9 1013.0
02 22.05 0 н/о
05 22.05 0 н/о
08 22.05 Ю 4 н/о н/о +18.9 +2.7 34 +19 +19 1024.6 1009.0
09 22.05 Ю 3 н/о н/о +17.1 +2.7 38 +17 +17 1025.6 1009.7
11 22.05 Ю 3 н/о н/о +14.3 +2.9 46 +14 +14 1025.9 1010.2
12 22.05 Ю 3 н/о н/о +13.3 +2.8 49 +12 +12 1026.2 1010.3
14 22.05 ЮВ 3 н/о н/о +12.6 +3.8 55 +12 +12 1026.0 1010.3
15 22.05 Ю 2 н/о н/о +11.6 +3.4 57 +11 +11 1025.9 1010.0
17 22.05 Ю 2 н/о н/о +9.2 +2.8 64 +8 +8 1024.9 1009.3
18 22.05 Ю 3 н/о н/о +8.9 +2.5 64 +7 +7 1025.0 1009.1
20 22.05 Ю 4 н/о н/о +9.7 +3.4 65 +7 +7 1024.8 1009.2
21 22.05 Ю 3 н/о н/о +9.7 +3.4 65 +8 +8 1025.7 1009.8
23 22.05 ЮВ 4 н/о н/о +14.4 +5.2 54 +13 +13 1026.6 1010.9
00 23.05 ЮВ 5 н/о н/о +16.7 +5.9 49 +16 +16 1027.0 1011.1
02 23.05 ЮВ 6 н/о н/о +20.2 +6.5 41 +21 +21 комфорт 1024.9 1009.3
03 23.05 ЮВ 5 н/о н/о +21.7 +6.4 37 +22 +22 комфорт 1023.9 1008.0
05 23.05 ЮВ 5 н/о н/о +23.2 +6.0 33 +24 +24 комфорт 1022.2 1006.6
06 23.05 ЮВ 5 н/о н/о +23.4 +5.8 32 +24 +24 комфорт 1022.1 1006.3
08 23.05 ЮВ 3 н/о н/о +21.5 +5.0 34 +22 +22 комфорт 1022.4 1006.8
09 23.05 ЮВ 3 н/о н/о +19.8 +5.5 39 +21 +21 комфорт 1023.1 1007.3
11 23.05 ЮВ 4 н/о н/о +18.9 +6.1 43 +19 +19 1023.5 1007.9
12 23.05 ЮВ 3 н/о н/о +18.0 +5.9 45 +18 +18 1024.1 1008.2
14 23.05 ЮВ 3 н/о н/о +16.3 +6.2 51 +16 +16 1023.0 1007.4 +23.9
15 23.05 ЮВ 3 н/о н/о +15.4 +6.1 54 +15 +15 1023.0 1007.2
17 23.05 ЮВ 2 н/о н/о +13.7 +5.6 58 +14 +14 1022.4 1006.8
18 23.05 ЮВ 3 н/о н/о +14.0 +6.4 60 +13 +13 1022.3 1006.5
20 23.05 ЮВ 3 н/о н/о +13.7 +6.8 63 +13 +13 1022.3 1006.7
21 23.05 ЮВ 4 н/о н/о +13.9 +6.5 61 +13 +13 1023.0 1007.2
23 23.05 В 3 н/о н/о +15.6 +6.6 55 +15 +15 1024.5 1008.9
00 24.05 В 4 н/о н/о +16.9 +6.7 51 +16 +16 1024.0 1008.1
02 24.05 В 4 н/о н/о +18.8 +6.6 45 +19 +19 1023.2 1007.6 +13.4
03 24.05 ЮВ 4 н/о н/о +19.4 +6.5 43 +20 +20 1022.1 1006.3
05 24.05 ЮВ 4 н/о н/о +20.1 +6.4 41 +21 +21 комфорт 1020.9 1005.3
06 24.05 ЮВ 5 н/о н/о +20.1 +6.4 41 +21 +21 комфорт 1021.0 1005.2
08 24.05 ЮВ 3 н/о н/о +19.1 +6.2 43 +20 +20 1021.7 1006.1
09 24.05 ЮВ 2 н/о н/о +16.8 +5.1 46 +17 +17 1022.5 1006.7
11 24.05 ЮВ 3 н/о н/о +16.0 +6.4 53 +16 +16 1023.0 1007.4
12 24.05 ЮВ 3 н/о н/о +15.4 +6.4 55 +15 +15 1023.2 1007.4
14 24.05 ЮВ 4 н/о н/о +14.8 +6.9 59 +14 +14 1022.3 1006.7 +20.6
15 24.05 ЮВ 3 н/о н/о +13.8 +6.7 62 +13 +13 1022.3 1006.5
17 24.05 ЮВ 3 н/о н/о +12.3 +6.6 68 +11 +11 1021.6 1006.0
18 24.05 ЮВ 3 н/о н/о +11.2 +5.9 70 +10 +10 1021.8 1006.0
20 24.05 ЮВ 2 н/о н/о +10.3 +5.1 70 +9 +9 1022.0 1006.4
21 24.05 ЮВ 2 н/о н/о +10.3 +5.7 73 +9 +9 1022.8 1007.0

 

Местоположение метеостанции Thargomindah Airport (Квинсленд, Австралия): широта -27.98 долгота 143.81 высота над уровнем моря 132 м.

В архиве по умолчанию представлена погода в Thargomindah Airport за последнюю неделю. Архивные данные за месяц целиком и за предыдущие месяцы, начиная с января 2011 года, Вы можете получить, выбрав интересующий диапазон дат из раскрывающегося списка и нажав кнопку "Ввод!".


*Определитесь, кто Вы:
робот инопланетянин человек

Внимание! Время в таблицах - всемирное. Для получения местного времени необходимо прибавить поправку, которая в Thargomindah Airport равна 10 ч.

Смотрите также архив погоды в соседних городах и на ближайших метеорологических станциях:

Погода в Ballera Gas Field (Квинсленд, Австралия) (206 км)
Погода в Tibooburra Airport (Новый Южный Уэльс, Австралия) (237 км)
Погода в Charleville Aero (Квинсленд, Австралия) (299 км)
Погода в Bourke Airport Aws (Новый Южный Уэльс, Австралия) (309 км)
Погода в White Cliffs Aws (Новый Южный Уэльс, Австралия) (327 км)
Погода в Moomba Airport (Южная Австралия, Австралия) (355 км)
Погода в Wilcannia Aerodrome (Новый Южный Уэльс, Австралия) (396 км)
Погода в Fowlers Gap Aws (Новый Южный Уэльс, Австралия) (401 км)
Погода в Blackall Airport (Квинсленд, Австралия) (428 км)
Погода в Cobar Mo (Новый Южный Уэльс, Австралия) (435 км)

Пояснения к столбцам:

Ветер - указаны скорость ветра в м/с - средняя за 10 мин, порывы в срок и между сроками (в фигурных скобках) и направление, откуда дует ветер: С - северный, СВ - северо-восточный, В - восточный, ЮВ - юго-восточный, Ю - южный, ЮЗ - юго-западный, З - западный, СЗ - северо-западный.
Видимость - горизонтальная дальность видимости в метрах или километрах. При видимости от 1 до 10 км при отсутствии осадков обычно наблюдается дымка, при ухудшении видимости до 1 км и менее - туман. В сухую погоду видимость может ухудшаться дымом, пылью или мглою.
Явления - указаны атмосферные явления, наблюдавшиеся в срок или в последний час перед сроком; фигурными скобками обозначены явления, наблюдавшиеся между сроками (за 1-3 часа до срока); квадратными скобками обозначены град или гололедные отложения с указанием их диаметра в мм.
Облачность - указаны через наклонную черту общая и нижняя облачность в баллах и высота нижней границы облаков в метрах; квадратными скобками обозначены формы облаков: Ci - перистые, Cs - перисто-слоистые, Cc - перисто-кучевые, Ac - высококучевые, As - высокослоистые, Sc - слоисто-кучевые, Ns - слоисто-дождевые, Cu - кучевые, Cb - кучево-дождевые. Подробнее классификацию облаков см. в Атласе облаков (PDF).
T - Температура воздуха - температура, измеренная на высоте 2 м над землей.
Td - Температура точки росы - температура, при понижении до которой содержащийся в воздухе водяной пар достигнет насыщения.
f - Относительная влажность воздуха - влажноcть воздуха, измеренная на высоте 2 м над землей.
Te - Эффективная температура - температура, которую ощущает одетый по сезону человек в тени. Характеристика душности погоды. При расчете учитывается влияние влажности воздуха и скорости ветра на теплоощущения человека.
Tes - Эффективная температура на солнце - температура, которую ощущает человек, с поправкой на солнечный нагрев. Характеристика знойности погоды. Зависит от высоты солнца над горизонтом, облачности и скорости ветра. Ночью, в пасмурную погоду, а также при ветре 12 м/с и более поправка равна нулю.
P - Атмосферное давление - приведенное к уровню моря атмосферное давление.
Po - Атмосферное давление - измеренное на уровне метеостанции атмосферное давление.
Tmin - Минимальная температура - минимум температуры воздуха на высоте 2 м над землей.
Tmax - Максимальная температура - максимум температуры воздуха на высоте 2 м над землей.
R - Количество осадков - Количество выпавших осадков за период времени, мм. При наведении курсора мыши на число - период времени, за который выпало указанное количество осадков.
R24 - Количество осадков - Количество выпавших осадков за 24 часа, мм.
S - Снежный покров - Высота снежного покрова, см. При наведении курсора мыши на число - состояние снежного покрова и степень покрытия местности в баллах.